DW7921 Weather Reports


time (UTC)temp
C
wind
direction
speed
KPH
gust
KPH
rain 1hr
cm
rain 24hr
cm
rain mn
cm
humidity
%
barometer
mb
20260505111543 11 276 0.0 1.6 0.00 0.00 0.00 87 1013.9
20260505101555 11 271 0.0 0.0 0.00 0.00 0.00 88 1013.4
20260505100055 11 250 0.0 0.0 0.00 0.00 0.00 88 1013.3
20260505094533 11 245 0.0 6.4 0.00 0.00 0.00 88 1013.3
20260505093030 11 224 0.0 0.0 0.00 0.00 0.00 88 1013.1
20260505091529 11 243 0.0 1.6 0.00 0.00 0.00 88 1013.0
20260505090028 11 248 0.0 9.7 0.00 0.00 0.00 88 1012.9
20260505084527 11 259 0.0 0.0 0.00 0.00 0.00 88 1012.8
20260505083025 11 293 0.0 0.0 0.00 0.00 0.00 88 1012.8
20260505081524 11 246 0.0 0.0 0.00 0.00 0.00 88 1012.8
20260505080025 11 250 0.0 0.0 0.00 0.00 0.00 88 1012.7
20260505074521 11 235 0.0 1.6 0.00 0.00 0.00 87 1012.5
20260505073032 12 200 0.0 0.0 0.00 0.00 0.00 87 1012.4
20260505071515 12 264 0.0 1.6 0.00 0.00 0.00 87 1012.2
20260505070014 12 269 0.0 1.6 0.00 0.00 0.00 87 1012.1
20260505064516 12 243 0.0 0.0 0.00 0.00 0.00 87 1012.0
20260505063008 12 255 0.0 0.0 0.00 0.00 0.00 87 1011.9
20260505061516 12 246 0.0 0.0 0.00 0.00 0.00 86 1011.7
20260505060002 12 242 0.0 0.0 0.00 0.00 0.00 86 1011.5
20260505054601 13 264 0.0 0.0 0.00 0.00 0.00 85 1011.4
20260505053058 13 281 0.0 0.0 0.00 0.00 0.00 84 1011.2
20260505051557 13 242 0.0 0.0 0.00 0.00 0.00 83 1011.2
20260505041552 16 247 0.0 3.2 0.00 0.00 0.00 77 1010.4
20260505040052 16 257 0.0 8.0 0.00 0.00 0.00 75 1010.2
20260505034552 17 271 0.0 3.2 0.00 0.00 0.00 73 1009.9
20260505033052 17 263 0.0 1.6 0.00 0.00 0.00 70 1009.8
20260505031552 18 276 0.0 3.2 0.00 0.00 0.00 68 1009.6
20260505030050 19 248 0.0 1.6 0.00 0.00 0.00 65 1009.4
20260505024553 20 240 0.0 0.0 0.00 0.00 0.00 61 1009.2
20260505023052 21 274 0.0 1.6 0.00 0.00 0.00 58 1009.2
20260505021547 22 264 0.0 1.6 0.00 0.00 0.00 55 1009.2
20260505020049 23 220 0.0 1.6 0.00 0.00 0.00 54 1009.2
20260505014551 23 264 0.0 1.6 0.00 0.00 0.00 54 1009.1
20260505013044 23 240 0.0 1.6 0.00 0.00 0.00 53 1009.2
20260505011543 24 259 0.0 0.0 0.00 0.00 0.00 52 1009.2
20260505004540 25 240 0.0 0.0 0.00 0.00 0.00 49 1009.3
20260505003042 25 282 0.0 0.0 0.00 0.00 0.00 50 1009.3
20260505001538 25 197 0.0 4.8 0.00 0.00 0.00 49 1009.3
20260505000044 25 193 0.0 1.6 0.00 0.00 0.00 51 1009.4
20260504234538 25 285 0.0 1.6 0.00 0.00 0.00 49 1009.4
20260504233037 25 260 0.0 1.6 0.00 0.00 0.00 48 1009.4
20260504231540 25 297 0.0 1.6 0.00 0.00 0.00 48 1009.3
20260504230041 25 284 0.0 1.6 0.00 0.00 0.00 45 1009.5
20260504224535 25 288 0.0 1.6 0.00 0.00 0.00 41 1009.8
20260504223032 26 232 0.0 0.0 0.00 0.00 0.00 41 1009.9
20260504221545 25 195 0.0 0.0 0.00 0.00 0.00 42 1010.0
20260504220033 25 273 0.0 0.0 0.00 0.00 0.00 45 1010.1
20260504214527 24 298 0.0 1.6 0.00 0.00 0.00 46 1010.3
20260504213030 23 264 0.0 1.6 0.00 0.00 0.00 46 1010.4
20260504211523 23 240 0.0 1.6 0.00 0.00 0.00 46 1010.5
20260504210023 23 253 0.0 1.6 0.00 0.00 0.00 49 1010.5
20260504204519 23 310 0.0 0.0 0.00 0.00 0.00 55 1010.6
20260504203016 22 241 0.0 0.0 0.00 0.00 0.00 55 1010.6
20260504201516 22 273 0.0 0.0 0.00 0.00 0.00 56 1010.5
20260504200015 22 222 0.0 0.0 0.00 0.00 0.00 58 1010.6
20260504194517 21 257 0.0 0.0 0.00 0.00 0.00 57 1010.7
20260504193014 22 281 0.0 0.0 0.00 0.00 0.00 54 1010.8
20260504191513 21 267 0.0 1.6 0.00 0.00 0.00 56 1010.9
20260504190012 22 233 0.0 0.0 0.00 0.00 0.00 53 1010.9
20260504184514 21 229 0.0 0.0 0.00 0.00 0.00 56 1011.0
20260504183009 21 143 0.0 0.0 0.00 0.00 0.00 57 1011.0
20260504181514 21 277 0.0 0.0 0.00 0.00 0.00 54 1011.1
20260504180012 21 226 0.0 0.0 0.00 0.00 0.00 54 1011.2
20260504174506 21 238 0.0 0.0 0.00 0.00 0.00 56 1011.1
20260504173004 21 253 0.0 0.0 0.00 0.00 0.00 54 1011.0
20260504171502 21 162 0.0 0.0 0.00 0.00 0.00 54 1011.0